Regional Weather Roundup
Issued by NWS

Home | Current Version | Previous Version | Graphics & Text | Print | Product List | Glossary On
Versions: 1 2 3 4 5 6 7 8 9 10 11 12 13 14 15 16 17 18 19 20 21 22 23 24 25 26 27 28 29 30 31 32 33 34 35 36 37 38 39 40 41 42 43 44 45 46 47 48 49 50
000
ASUS43 KMPX 281701
RWRMN
WEATHER ROUNDUP FOR MINNESOTA
NATIONAL WEATHER SERVICE TWIN CITIES/CHANHASSEN MN
1200 PM CDT SAT MAR 28 2015


NOTE: "FAIR" INDICATES FEW OR NO CLOUDS BELOW 12,000 FEET WITH NO
SIGNIFICANT WEATHER AND/OR OBSTRUCTIONS TO VISIBILITY. N/A MEANS
CURRENT SKY AND/OR WEATHER CONDITIONS ARE NOT AVAILABLE.

MNZ060>063-068>070-281800-
   Twin Cities Metro

CITY           SKY/WX    TMP DP  RH WIND       PRES   REMARKS
TWIN CITIES    SUNNY     35  13  40 S10       30.25F WCI  27
ST PAUL        SUNNY     38  14  37 SE9       30.27S
CRYSTAL        SUNNY     38  13  35 SE12      30.23F
LAKEVILLE      SUNNY     30  18  59 SE6       30.25S WCI  24
EDEN PRAIRIE   SUNNY     38  15  39 S9        30.23F
SOUTH ST PAUL  SUNNY     36  13  39 SE7       30.26S
LAKE ELMO      FAIR      37  16  41 S9        30.26S
$$
MNZ001>005-007-008-013>017-022>024-027-028-281800-
   Northwest Minnesota

CITY           SKY/WX    TMP DP  RH WIND       PRES   REMARKS
BEMIDJI        SUNNY     37  16  41 S14G22    30.07F
HALLOCK        MOSUNNY   39  28  65 S23       29.97F
ROSEAU         SUNNY     37  25  60 S17       30.00F
WARROAD        SUNNY     37  23  56 S14G21    30.01F
THIEF RVR FALL MOSUNNY   37  25  60 S18G25    30.02F
CROOKSTON      SUNNY     39  25  56 S26       30.03F
FOSSTON        SUNNY     37  21  52 S24       30.05F
DETROIT LAKES  SUNNY     37  27  65 S15       30.07F
MOORHEAD       MOSUNNY   41  27  56 S21G28    30.06F
PARK RAPIDS    SUNNY     40  19  43 S17       30.09F
MAHNOMEN       FAIR      37  23  57 S17G25    30.06F
$$
MNZ006-009>011-018-025>026-281800-
   North Central Minnesota

CITY           SKY/WX    TMP DP  RH WIND       PRES   REMARKS
BAUDETTE       SUNNY     37  13  37 S16       30.03F
FLAG ISLAND    SUNNY     27  19  74 S12       30.01F WCI  16
INTL FALLS     SUNNY     38  11  32 SW13G23   30.07F
WASKISH        SUNNY     39  16  38 S9G17     30.06F
BIG FORK       SUNNY     39  10  30 S14G20    30.10F
LONGVILLE      SUNNY     37  12  35 S12G18    30.11F
GRAND RAPIDS   SUNNY     36   9  32 S13G18    30.12F
CRANE LAKE     SUNNY     36   3  25 S9G16     30.12F
ORR            SUNNY     37   3  23 S8G18     30.08F
COOK           SUNNY     36   7  30 S14G21    30.12F
WALKER         FAIR      35  13  41 S12G20    30.10F WCI  27
$$
MNZ012-019>021-037-281800-
   Northeast Minnesota

CITY           SKY/WX    TMP DP  RH WIND       PRES   REMARKS
DULUTH         SUNNY     36   8  31 SW12G23   30.16F
ELY            SUNNY     36   3  25 SW10      30.12F
HIBBING        SUNNY     37   6  27 S12       30.12F
EVELETH        SUNNY     36   9  32 S16       30.14F
DULUTH HARBOR  SUNNY     32  19  59 CALM      30.22F
TWO HARBORS    SUNNY     39  18  41 SW9       30.17F
SILVER BAY     SUNNY     37  16  41 S8        30.16F
GRAND MARAIS     N/A     28  18  66 SW6       30.22F WCI  22
G MARAIS ARPRT SUNNY     30   7  37 S7        30.13F WCI  23
$$
MNZ029>031-032-039>041-046>048-054>057-064-281800-
   West Central Minnesota

CITY           SKY/WX    TMP DP  RH WIND       PRES   REMARKS
FERGUS FALLS   CLOUDY    37  21  52 S17G26    30.12F
WHEATON        MOSUNNY   36  27  69 S15G24    30.11F
MORRIS         PTSUNNY   37  28  70 S18       30.11F
ALEXANDRIA     MOSUNNY   37  24  59 S16       30.13F
ELBOW LAKE     PTSUNNY   38  27  65 S18       30.11F
WADENA         MOSUNNY   37  23  56 S16       30.11F
GLENWOOD       MOSUNNY   37  25  60 S14       30.14F
APPLETON       MOSUNNY   39  27  60 S14       30.13F
BENSON         PTSUNNY   39  27  60 S13G21    30.14F
ORTONVILLE     MOSUNNY   39  27  60 S15       30.10F
MADISON        MOSUNNY   41  27  56 S16       30.12F
WILLMAR        FAIR      37  25  60 S8G20     30.18F
$$
MNZ033>034-036-042>043-049>051-058-059-281800-
   Central Minnesota

CITY           SKY/WX    TMP DP  RH WIND       PRES   REMARKS
ST CLOUD       SUNNY     38  17  42 SE12      30.19F
SAUK CENTRE    FAIR      37  23  56 S17G23    30.16F
PAYNESVILLE    SUNNY     33  21  60 E12G18    30.18F WCI  25
AITKIN         SUNNY     39   3  22 S15G21    30.14F
PINE RIVER     SUNNY     36  19  51 S12       30.16F
BRAINERD       SUNNY     38  14  37 S12       30.15F
STAPLES        SUNNY     37  19  48 S18       30.13F
LONG PRAIRIE   FAIR      36  23  60 SE15G22   30.15F
LITTLE FALLS   SUNNY     37  18  44 S13       30.16F
LITCHFIELD     SUNNY     37  19  48 SE6       30.19F
MAPLE LAKE     SUNNY     39  22  49 SE7       30.21F
$$
MNZ037-044-045-052-053-281800-
   East Central Minnesota

CITY           SKY/WX    TMP DP  RH WIND       PRES   REMARKS
PRINCETON      SUNNY     41  16  36 SE12      30.20F
MORA           SUNNY     36  10  35 S12       30.22F
CAMBRIDGE      SUNNY     39  19  45 SE10      30.20F
RUSH CITY      SUNNY     37   8  30 S12       30.23S
MOOSE LAKE     SUNNY     37  10  32 CALM      30.17F
HINCKLEY       FAIR      36  10  35 S12       30.21F
CLOQUET        SUNNY     36   3  25 S8G18     30.17F
MCGREGOR       SUNNY     36  10  35 S14       30.17F
$$
MNZ071>073-080-081-089-090-097-098-281800-
   Southwest Minnesota

CITY           SKY/WX    TMP DP  RH WIND       PRES   REMARKS
MONTEVIDEO     CLOUDY    37  28  70 S12G17    30.15F
GRANITE FALLS  CLOUDY    38  28  67 SE14G20   30.17F
CANBY          MOSUNNY   41  25  51 S13G20    30.13F
MARSHALL       MOSUNNY   39  25  56 S15       30.14F
REDWOOD FALLS  CLOUDY    38  25  59 S14       30.18F
OLIVIA         MOSUNNY   34  27  75 SE13G18   30.17F WCI  25
PIPESTONE      MOSUNNY   37  28  70 S15       30.10F
WINDOM         CLOUDY    36  27  69 S10G16    30.17S
WORTHINGTON    MOSUNNY   37  28  70 S14       30.16S
JACKSON        CLOUDY    37  27  65 S10G17    30.17F
TRACY          MOSUNNY   38  31  77 S13       30.15F
SLAYTON        MOSUNNY   38  30  71 SE15      30.13F
$$
MNZ065>067-074>077-082>085-091>093-281800-
   South Central Minnesota

CITY           SKY/WX    TMP DP  RH WIND       PRES   REMARKS
MANKATO        SUNNY     37  19  48 S10       30.22F
NEW ULM        MOSUNNY   39  19  45 S14       30.19F
ST JAMES       CLOUDY    39  21  48 S14       30.20F
FAIRMONT       CLOUDY    37  18  44 S14       30.19F
GLENCOE        SUNNY     36  22  58 SE8       30.21S
FARIBAULT      SUNNY     36  19  51 SE12      30.24F
OWATONNA       SUNNY     36  19  51 S8        30.23F
WASECA         SUNNY     37  23  56 SE10      30.24S
ALBERT LEA     SUNNY     37  16  41 S13       30.22F
$$
MNZ078>079-086>088-094>096-281800-
   Southeast Minnesota

CITY           SKY/WX    TMP DP  RH WIND       PRES   REMARKS
ROCHESTER      SUNNY     30  16  56 S13       30.26S WCI  20
RED WING       SUNNY     36  10  35 SE7       30.26F
STANTON        SUNNY     34  17  48 S13       30.24S WCI  25
DODGE CENTER   SUNNY     30  19  64 S10       30.24S WCI  21
WINONA         SUNNY     36  10  35 S8        30.30S
AUSTIN         SUNNY     34  19  55 S8        30.24F WCI  27
PRESTON        SUNNY     30  16  55 S9        30.27S WCI  22
$$
ABBREVIATIONS USED IN REMARKS
   TC - TEMPERATURES IN CELSIUS
  WCI - WIND CHILL INDEX
   HX - HEAT INDEX
  VSB - VISIBILITY
$$



USA.gov is the U.S. government's official web portal to all federal, state and local government web resources and services.